This is the latest recevied weather packets stored in our database for station/object LA4GY-1. If no packets are shown the sender has not sent any weather packets the latest 10 day(s).
| Time | Temp. | Humidity | Pressure | Rain* | Wind** | Luminosity | Snow |
|---|---|---|---|---|---|---|---|
| 1787860342 | 15° C | 79% | 1021.6 hPa | 0 mm | - | - | - |
| 1787859742 | 15° C | 78% | 1021.7 hPa | 0 mm | - | - | - |
| 1787859142 | 15.56° C | 78% | 1021.8 hPa | 0 mm | - | - | - |
| 1787858542 | 15.56° C | 77% | 1021.6 hPa | 0 mm | - | - | - |
| 1787857942 | 15.56° C | 77% | 1021.5 hPa | 0 mm | - | - | - |
| 1787857342 | 16.11° C | 77% | 1021.6 hPa | 0 mm | - | - | - |
| 1787856742 | 16.11° C | 76% | 1021.6 hPa | 0 mm | - | - | - |
| 1787856142 | 16.67° C | 76% | 1021.7 hPa | 0 mm | - | - | - |
| 1787855542 | 16.67° C | 75% | 1021.7 hPa | 0 mm | - | - | - |
| 1787854942 | 17.22° C | 75% | 1021.8 hPa | 0 mm | - | - | - |
| 1787854342 | 17.22° C | 74% | 1021.8 hPa | 0 mm | - | - | - |
| 1787853742 | 17.22° C | 72% | 1021.9 hPa | 0 mm | - | - | - |
| 1787853142 | 17.78° C | 71% | 1021.8 hPa | 0 mm | - | - | - |
| 1787852542 | 17.78° C | 70% | 1021.8 hPa | 0 mm | - | - | - |
| 1787851942 | 18.33° C | 69% | 1021.9 hPa | 0 mm | - | - | - |
| 1787851342 | 18.33° C | 69% | 1021.9 hPa | 0 mm | - | - | - |
| 1787850712 | 18.89° C | 70% | 1021.9 hPa | 0 mm | - | - | - |
| 1787850111 | 18.89° C | 65% | 1022 hPa | 0 mm | - | - | - |
| 1787849511 | 19.44° C | 66% | 1022.1 hPa | 0 mm | - | - | - |
| 1787848911 | 19.44° C | 66% | 1022.1 hPa | 0 mm | - | - | - |
| 1787848311 | 20° C | 73% | 1022.2 hPa | 0 mm | - | - | - |
| 1787847711 | 20° C | 75% | 1022.4 hPa | 0 mm | - | - | - |
| 1787847111 | 20° C | 72% | 1022.3 hPa | 0 mm | - | - | - |
| 1787846481 | 20° C | 72% | 1022.4 hPa | 0 mm | - | - | - |
| 1787845881 | 20° C | 73% | 1022.5 hPa | 0 mm | - | - | - |
* Rain latest hour (hover to see other rain measurements)
** Current wind speed in m/s (hover to see current wind gust speed)